Time,TemperatureF,DewpointF,PressureIn,WindDirection,WindDirectionDegrees,WindSpeedMPH,WindSpeedGustMPH,Humidity,HourlyPrecipIn,Conditions,Clouds,dailyrainin,SoftwareType,DateUTC
2013-06-03 00:02:00,59.6,57.3,30.01,NNW,328,0.0,2.0,92,0.00,,,0.00,WUHU216DAVISVP2,2013-06-03 05:02:00,
2013-06-03 00:07:00,59.3,57.0,30.01,NNW,330,0.0,1.0,92,0.00,,,0.00,WUHU216DAVISVP2,2013-06-03 05:07:00,
2013-06-03 00:12:00,59.1,57.1,30.00,NW,318,0.0,1.0,93,0.00,,,0.00,WUHU216DAVISVP2,2013-06-03 05:12:00,
2013-06-03 00:17:00,58.9,56.9,30.00,NW,326,0.0,2.0,93,0.00,,,0.00,WUHU216DAVISVP2,2013-06-03 05:17:00,
2013-06-03 00:22:00,58.8,56.8,30.00,NW,318,0.0,3.0,93,0.00,,,0.00,WUHU216DAVISVP2,2013-06-03 05:22:00,
2013-06-03 00:27:00,58.6,56.5,30.00,NW,318,0.0,3.0,93,0.00,,,0.00,WUHU216DAVISVP2,2013-06-03 05:27:00,
2013-06-03 00:32:00,58.4,56.3,30.01,NW,318,0.0,0.0,93,0.00,,,0.00,WUHU216DAVISVP2,2013-06-03 05:32:00,
2013-06-03 00:37:00,58.2,56.4,30.01,NW,318,0.0,0.0,94,0.00,,,0.00,WUHU216DAVISVP2,2013-06-03 05:37:00,
2013-06-03 00:42:00,58.1,56.3,30.01,NW,318,0.0,1.0,94,0.00,,,0.00,WUHU216DAVISVP2,2013-06-03 05:42:00,
2013-06-03 00:47:00,58.1,56.6,30.01,NW,319,0.0,1.0,95,0.00,,,0.00,WUHU216DAVISVP2,2013-06-03 05:47:00,
2013-06-03 00:52:00,58.1,56.6,30.01,NW,319,0.0,1.0,95,0.00,,,0.00,WUHU216DAVISVP2,2013-06-03 05:52:00,
2013-06-03 00:57:00,58.0,56.5,30.01,NW,319,0.0,0.0,95,0.00,,,0.00,WUHU216DAVISVP2,2013-06-03 05:57:00,
2013-06-03 01:02:00,58.0,56.5,30.01,NW,319,0.0,0.0,95,0.00,,,0.00,WUHU216DAVISVP2,2013-06-03 06:02:00,
2013-06-03 01:07:00,57.8,56.3,30.01,NW,319,0.0,0.0,95,0.00,,,0.00,WUHU216DAVISVP2,2013-06-03 06:07:00,
2013-06-03 01:12:00,57.9,56.4,30.01,NW,319,0.0,0.0,95,0.00,,,0.00,WUHU216DAVISVP2,2013-06-03 06:12:00,
2013-06-03 01:17:00,58.2,56.7,30.01,NW,319,0.0,0.0,95,0.00,,,0.00,WUHU216DAVISVP2,2013-06-03 06:17:00,
2013-06-03 01:22:00,58.3,56.8,30.01,NW,319,0.0,0.0,95,0.00,,,0.00,WUHU216DAVISVP2,2013-06-03 06:22:00,
2013-06-03 01:27:00,58.4,56.9,30.00,NW,320,0.0,0.0,95,0.00,,,0.00,WUHU216DAVISVP2,2013-06-03 06:27:00,
2013-06-03 01:32:00,58.4,56.9,30.01,NE,48,0.0,0.0,95,0.00,,,0.00,WUHU216DAVISVP2,2013-06-03 06:32:00,
2013-06-03 01:37:00,58.5,56.7,30.01,NE,47,0.0,0.0,94,0.00,,,0.00,WUHU216DAVISVP2,2013-06-03 06:37:00,
2013-06-03 01:42:00,58.6,56.8,30.01,NNW,328,0.0,0.0,94,0.00,,,0.00,WUHU216DAVISVP2,2013-06-03 06:42:00,
2013-06-03 01:47:00,58.6,56.8,30.01,NE,42,0.0,0.0,94,0.00,,,0.00,WUHU216DAVISVP2,2013-06-03 06:47:00,
2013-06-03 01:52:00,58.7,56.6,30.01,NNW,330,0.0,1.0,93,0.00,,,0.00,WUHU216DAVISVP2,2013-06-03 06:52:00,
2013-06-03 01:57:00,58.8,56.7,30.01,NNW,330,0.0,1.0,93,0.00,,,0.00,WUHU216DAVISVP2,2013-06-03 06:57:00,
2013-06-03 02:02:00,58.8,56.7,30.01,NNW,330,0.0,0.0,93,0.00,,,0.00,WUHU216DAVISVP2,2013-06-03 07:02:00,
2013-06-03 02:07:00,58.9,56.8,30.01,NNW,329,0.0,0.0,93,0.00,,,0.00,WUHU216DAVISVP2,2013-06-03 07:07:00,
2013-06-03 02:12:00,58.9,56.9,30.00,NNW,330,0.0,0.0,93,0.00,,,0.00,WUHU216DAVISVP2,2013-06-03 07:12:00,
2013-06-03 02:17:00,58.9,56.9,30.00,NW,321,0.0,0.0,93,0.00,,,0.00,WUHU216DAVISVP2,2013-06-03 07:17:00,
2013-06-03 02:22:00,59.0,57.0,30.00,ENE,71,0.0,0.0,93,0.00,,,0.00,WUHU216DAVISVP2,2013-06-03 07:22:00,
2013-06-03 02:27:00,59.0,56.7,30.00,ENE,69,1.0,2.0,92,0.00,,,0.00,WUHU216DAVISVP2,2013-06-03 07:27:00,
2013-06-03 02:32:00,59.1,56.8,30.00,ENE,75,0.0,4.0,92,0.00,,,0.00,WUHU216DAVISVP2,2013-06-03 07:32:00,
2013-06-03 02:37:00,59.1,56.5,30.00,ENE,65,0.0,4.0,91,0.00,,,0.00,WUHU216DAVISVP2,2013-06-03 07:37:00,
2013-06-03 02:42:00,59.1,56.4,30.00,ENE,68,0.0,3.0,91,0.00,,,0.00,WUHU216DAVISVP2,2013-06-03 07:42:00,
2013-06-03 02:47:00,59.1,56.4,30.00,NNE,12,0.0,1.0,91,0.00,,,0.00,WUHU216DAVISVP2,2013-06-03 07:47:00,
2013-06-03 02:52:00,59.0,56.3,30.00,NE,49,0.0,0.0,91,0.00,,,0.00,WUHU216DAVISVP2,2013-06-03 07:52:00,
2013-06-03 02:57:00,59.0,56.3,30.00,WNW,299,0.0,0.0,91,0.00,,,0.00,WUHU216DAVISVP2,2013-06-03 07:57:00,
2013-06-03 03:02:00,59.0,56.3,30.00,NE,37,0.0,0.0,91,0.00,,,0.00,WUHU216DAVISVP2,2013-06-03 08:02:00,
2013-06-03 03:07:00,59.0,56.3,30.00,ENE,59,0.0,0.0,91,0.00,,,0.00,WUHU216DAVISVP2,2013-06-03 08:07:00,
2013-06-03 03:12:00,58.9,56.2,30.00,NNW,342,0.0,0.0,91,0.00,,,0.00,WUHU216DAVISVP2,2013-06-03 08:12:00,
2013-06-03 03:17:00,58.9,56.2,30.00,NNW,335,0.0,0.0,91,0.00,,,0.00,WUHU216DAVISVP2,2013-06-03 08:17:00,
2013-06-03 03:22:00,58.9,56.2,30.00,NW,309,0.0,0.0,91,0.00,,,0.00,WUHU216DAVISVP2,2013-06-03 08:22:00,
2013-06-03 03:27:00,58.8,56.1,30.00,NNE,27,0.0,0.0,91,0.00,,,0.00,WUHU216DAVISVP2,2013-06-03 08:27:00,
2013-06-03 03:32:00,58.8,56.1,30.00,NNE,27,0.0,0.0,91,0.00,,,0.00,WUHU216DAVISVP2,2013-06-03 08:32:00,
2013-06-03 03:37:00,58.8,56.1,30.00,NE,37,0.0,0.0,91,0.00,,,0.00,WUHU216DAVISVP2,2013-06-03 08:37:00,
2013-06-03 03:42:00,58.8,56.4,30.00,NNW,333,0.0,0.0,92,0.00,,,0.00,WUHU216DAVISVP2,2013-06-03 08:42:00,
2013-06-03 03:47:00,58.8,56.4,30.00,NNW,342,0.0,0.0,92,0.00,,,0.00,WUHU216DAVISVP2,2013-06-03 08:47:00,
2013-06-03 03:52:00,58.8,56.4,30.00,WNW,283,0.0,0.0,92,0.00,,,0.00,WUHU216DAVISVP2,2013-06-03 08:52:00,
2013-06-03 03:57:00,58.8,56.4,30.00,NNW,331,0.0,0.0,92,0.00,,,0.00,WUHU216DAVISVP2,2013-06-03 08:57:00,
2013-06-03 04:02:00,58.8,56.5,30.00,NW,324,0.0,0.0,92,0.00,,,0.00,WUHU216DAVISVP2,2013-06-03 09:02:00,
2013-06-03 04:07:00,58.9,56.3,30.00,NNW,347,0.0,3.0,91,0.00,,,0.00,WUHU216DAVISVP2,2013-06-03 09:07:00,
2013-06-03 04:12:00,58.8,56.5,30.00,NNE,20,1.0,3.0,92,0.00,,,0.00,WUHU216DAVISVP2,2013-06-03 09:12:00,
2013-06-03 04:17:00,58.8,56.5,30.00,NNW,328,3.0,3.0,92,0.00,,,0.00,WUHU216DAVISVP2,2013-06-03 09:17:00,
2013-06-03 04:22:00,58.8,56.5,30.00,NNW,348,2.0,4.0,92,0.00,,,0.00,WUHU216DAVISVP2,2013-06-03 09:22:00,
2013-06-03 04:27:00,58.8,56.5,30.00,NW,322,1.0,4.0,92,0.00,,,0.00,WUHU216DAVISVP2,2013-06-03 09:27:00,
2013-06-03 04:32:00,58.8,56.5,30.00,NNW,327,3.0,4.0,92,0.00,,,0.00,WUHU216DAVISVP2,2013-06-03 09:32:00,
2013-06-03 04:37:00,58.7,56.4,30.00,NNW,343,2.0,3.0,92,0.00,,,0.00,WUHU216DAVISVP2,2013-06-03 09:37:00,
2013-06-03 04:42:00,58.7,56.3,30.01,NW,320,1.0,3.0,92,0.00,,,0.00,WUHU216DAVISVP2,2013-06-03 09:42:00,
2013-06-03 04:47:00,58.7,56.3,30.01,NW,326,0.0,3.0,92,0.00,,,0.00,WUHU216DAVISVP2,2013-06-03 09:47:00,
2013-06-03 04:52:00,58.7,56.3,30.01,NNE,30,0.0,5.0,92,0.00,,,0.00,WUHU216DAVISVP2,2013-06-03 09:52:00,
2013-06-03 04:57:00,58.6,56.5,30.01,ENE,67,0.0,5.0,93,0.00,,,0.00,WUHU216DAVISVP2,2013-06-03 09:57:00,
2013-06-03 05:02:00,58.5,56.4,30.01,ENE,78,2.0,2.0,93,0.00,,,0.00,WUHU216DAVISVP2,2013-06-03 10:02:00,
2013-06-03 05:07:00,58.3,56.2,30.01,WNW,290,1.0,2.0,93,0.00,,,0.00,WUHU216DAVISVP2,2013-06-03 10:07:00,
2013-06-03 05:12:00,58.2,56.1,30.01,ENE,77,0.0,2.0,93,0.00,,,0.00,WUHU216DAVISVP2,2013-06-03 10:12:00,
2013-06-03 05:17:00,58.0,55.9,30.01,ENE,74,0.0,2.0,93,0.00,,,0.00,WUHU216DAVISVP2,2013-06-03 10:17:00,
2013-06-03 05:22:00,57.9,55.8,30.01,WNW,302,2.0,2.0,93,0.00,,,0.00,WUHU216DAVISVP2,2013-06-03 10:22:00,
2013-06-03 05:27:00,57.8,55.7,30.02,WSW,248,1.0,2.0,93,0.00,,,0.00,WUHU216DAVISVP2,2013-06-03 10:27:00,
2013-06-03 05:32:00,57.6,55.6,30.02,WSW,246,0.0,2.0,93,0.00,,,0.00,WUHU216DAVISVP2,2013-06-03 10:32:00,
2013-06-03 05:37:00,57.4,55.4,30.03,WSW,246,0.0,2.0,93,0.00,,,0.00,WUHU216DAVISVP2,2013-06-03 10:37:00,
2013-06-03 05:42:00,57.3,55.5,30.03,WSW,250,0.0,0.0,94,0.00,,,0.00,WUHU216DAVISVP2,2013-06-03 10:42:00,
2013-06-03 05:47:00,57.2,55.4,30.03,WSW,250,0.0,0.0,94,0.00,,,0.00,WUHU216DAVISVP2,2013-06-03 10:47:00,
2013-06-03 05:52:00,57.3,55.5,30.03,WNW,302,0.0,0.0,94,0.00,,,0.00,WUHU216DAVISVP2,2013-06-03 10:52:00,
2013-06-03 05:57:00,57.3,55.5,30.03,WNW,302,0.0,0.0,94,0.00,,,0.00,WUHU216DAVISVP2,2013-06-03 10:57:00,
2013-06-03 06:02:00,57.3,55.5,30.03,WNW,302,0.0,0.0,94,0.00,,,0.00,WUHU216DAVISVP2,2013-06-03 11:02:00,
2013-06-03 06:07:00,57.4,55.6,30.04,WNW,302,0.0,0.0,94,0.00,,,0.00,WUHU216DAVISVP2,2013-06-03 11:07:00,
2013-06-03 06:12:00,57.6,55.8,30.04,WNW,302,0.0,0.0,94,0.00,,,0.00,WUHU216DAVISVP2,2013-06-03 11:12:00,
2013-06-03 06:17:00,57.9,56.1,30.05,North,349,1.0,2.0,94,0.00,,,0.00,WUHU216DAVISVP2,2013-06-03 11:17:00,
2013-06-03 06:22:00,58.0,56.2,30.05,NW,316,0.0,2.0,94,0.00,,,0.00,WUHU216DAVISVP2,2013-06-03 11:22:00,
2013-06-03 06:27:00,58.2,56.1,30.05,NW,316,0.0,2.0,93,0.00,,,0.00,WUHU216DAVISVP2,2013-06-03 11:27:00,
2013-06-03 06:32:00,58.3,56.2,30.05,NNW,342,0.0,2.0,93,0.00,,,0.00,WUHU216DAVISVP2,2013-06-03 11:32:00,
2013-06-03 06:37:00,58.4,56.3,30.05,NNE,32,2.0,2.0,93,0.00,,,0.00,WUHU216DAVISVP2,2013-06-03 11:37:00,
2013-06-03 06:42:00,58.4,56.3,30.05,NW,316,3.0,3.0,93,0.00,,,0.00,WUHU216DAVISVP2,2013-06-03 11:42:00,
2013-06-03 06:47:00,58.4,56.3,30.06,NW,323,2.0,4.0,93,0.00,,,0.00,WUHU216DAVISVP2,2013-06-03 11:47:00,
2013-06-03 06:52:00,58.5,56.4,30.06,East,92,1.0,4.0,93,0.00,,,0.00,WUHU216DAVISVP2,2013-06-03 11:52:00,
2013-06-03 06:57:00,58.5,56.1,30.06,East,85,0.0,2.0,92,0.00,,,0.00,WUHU216DAVISVP2,2013-06-03 11:57:00,
2013-06-03 07:02:00,58.6,56.2,30.07,NNW,343,1.0,2.0,92,0.00,,,0.00,WUHU216DAVISVP2,2013-06-03 12:02:00,
2013-06-03 07:07:00,58.7,56.3,30.07,ENE,68,0.0,3.0,92,0.00,,,0.00,WUHU216DAVISVP2,2013-06-03 12:07:00,
2013-06-03 07:12:00,58.7,56.3,30.07,ENE,78,0.0,3.0,92,0.00,,,0.00,WUHU216DAVISVP2,2013-06-03 12:12:00,
2013-06-03 07:17:00,58.8,56.1,30.08,NNE,28,0.0,3.0,91,0.00,,,0.00,WUHU216DAVISVP2,2013-06-03 12:17:00,
2013-06-03 07:22:00,58.7,55.4,30.08,ENE,65,1.0,4.0,89,0.00,,,0.00,WUHU216DAVISVP2,2013-06-03 12:22:00,
2013-06-03 07:27:00,58.7,55.4,30.08,NE,46,3.0,4.0,89,0.00,,,0.00,WUHU216DAVISVP2,2013-06-03 12:27:00,
2013-06-03 07:32:00,58.6,55.0,30.08,ENE,75,3.0,4.0,88,0.00,,,0.00,WUHU216DAVISVP2,2013-06-03 12:32:00,
2013-06-03 07:37:00,58.7,55.1,30.08,NW,323,1.0,4.0,88,0.00,,,0.00,WUHU216DAVISVP2,2013-06-03 12:37:00,
2013-06-03 07:42:00,59.0,55.1,30.08,NE,50,0.0,3.0,87,0.00,,,0.00,WUHU216DAVISVP2,2013-06-03 12:42:00,
2013-06-03 07:47:00,59.1,55.2,30.08,ENE,69,0.0,2.0,87,0.00,,,0.00,WUHU216DAVISVP2,2013-06-03 12:47:00,
2013-06-03 07:52:00,59.1,54.9,30.09,ENE,58,0.0,2.0,86,0.00,,,0.00,WUHU216DAVISVP2,2013-06-03 12:52:00,
2013-06-03 07:57:00,59.4,55.2,30.09,NW,318,3.0,3.0,86,0.00,,,0.00,WUHU216DAVISVP2,2013-06-03 12:57:00,
2013-06-03 08:02:00,59.6,56.0,30.09,East,82,1.0,3.0,88,0.00,,,0.00,WUHU216DAVISVP2,2013-06-03 13:02:00,
2013-06-03 08:07:00,59.7,55.5,30.09,ENE,77,1.0,3.0,86,0.00,,,0.00,WUHU216DAVISVP2,2013-06-03 13:07:00,
2013-06-03 08:12:00,59.8,55.3,30.09,ENE,78,1.0,4.0,85,0.00,,,0.00,WUHU216DAVISVP2,2013-06-03 13:12:00,
2013-06-03 08:17:00,59.9,55.1,30.09,NNE,16,0.0,5.0,84,0.00,,,0.00,WUHU216DAVISVP2,2013-06-03 13:17:00,
2013-06-03 08:22:00,60.1,55.3,30.09,ENE,67,1.0,5.0,84,0.00,,,0.00,WUHU216DAVISVP2,2013-06-03 13:22:00,
2013-06-03 08:27:00,60.3,55.1,30.09,NW,319,0.0,4.0,83,0.00,,,0.00,WUHU216DAVISVP2,2013-06-03 13:27:00,
2013-06-03 08:32:00,60.4,54.9,30.09,ENE,75,0.0,3.0,82,0.00,,,0.00,WUHU216DAVISVP2,2013-06-03 13:32:00,
2013-06-03 08:37:00,60.7,55.5,30.09,ENE,76,3.0,4.0,83,0.00,,,0.00,WUHU216DAVISVP2,2013-06-03 13:37:00,
2013-06-03 08:42:00,60.6,55.1,30.08,ENE,65,2.0,7.0,82,0.00,,,0.00,WUHU216DAVISVP2,2013-06-03 13:42:00,
2013-06-03 08:47:00,61.0,55.2,30.08,NE,49,1.0,7.0,81,0.00,,,0.00,WUHU216DAVISVP2,2013-06-03 13:47:00,
2013-06-03 08:52:00,61.8,55.3,30.08,NNE,12,6.0,8.0,79,0.00,,,0.00,WUHU216DAVISVP2,2013-06-03 13:52:00,
2013-06-03 08:57:00,61.9,54.4,30.07,NNE,23,6.0,11.0,76,0.00,,,0.00,WUHU216DAVISVP2,2013-06-03 13:57:00,
2013-06-03 09:02:00,61.8,54.6,30.07,ENE,57,1.0,11.0,77,0.00,,,0.00,WUHU216DAVISVP2,2013-06-03 14:02:00,
2013-06-03 09:07:00,62.8,55.6,30.08,NE,55,2.0,9.0,77,0.00,,,0.00,WUHU216DAVISVP2,2013-06-03 14:07:00,
2013-06-03 09:12:00,62.9,55.3,30.08,East,80,3.0,7.0,76,0.00,,,0.00,WUHU216DAVISVP2,2013-06-03 14:12:00,
2013-06-03 09:17:00,62.9,55.7,30.07,ENE,77,5.0,7.0,77,0.00,,,0.00,WUHU216DAVISVP2,2013-06-03 14:17:00,
2013-06-03 09:22:00,63.2,55.3,30.08,ENE,59,4.0,8.0,75,0.00,,,0.00,WUHU216DAVISVP2,2013-06-03 14:22:00,
2013-06-03 09:27:00,63.1,55.9,30.08,East,94,4.0,8.0,77,0.00,,,0.00,WUHU216DAVISVP2,2013-06-03 14:27:00,
2013-06-03 09:32:00,63.5,56.2,30.07,NNW,346,1.0,8.0,77,0.00,,,0.00,WUHU216DAVISVP2,2013-06-03 14:32:00,
2013-06-03 09:37:00,63.9,55.8,30.08,ENE,69,2.0,8.0,75,0.00,,,0.00,WUHU216DAVISVP2,2013-06-03 14:37:00,
2013-06-03 09:42:00,63.9,55.1,30.08,ENE,75,5.0,8.0,73,0.00,,,0.00,WUHU216DAVISVP2,2013-06-03 14:42:00,
2013-06-03 09:47:00,63.8,55.7,30.07,ENE,77,6.0,8.0,75,0.00,,,0.00,WUHU216DAVISVP2,2013-06-03 14:47:00,
2013-06-03 09:52:00,64.3,56.0,30.08,East,80,5.0,9.0,74,0.00,,,0.00,WUHU216DAVISVP2,2013-06-03 14:52:00,
2013-06-03 09:57:00,64.5,56.2,30.07,East,94,2.0,9.0,74,0.00,,,0.00,WUHU216DAVISVP2,2013-06-03 14:57:00,
2013-06-03 10:02:00,64.6,55.9,30.07,ENE,63,2.0,8.0,73,0.00,,,0.00,WUHU216DAVISVP2,2013-06-03 15:02:00,
2013-06-03 10:07:00,64.2,54.7,30.07,ENE,70,5.0,8.0,71,0.00,,,0.00,WUHU216DAVISVP2,2013-06-03 15:07:00,
2013-06-03 10:12:00,63.7,55.0,30.07,ENE,58,1.0,8.0,73,0.00,,,0.00,WUHU216DAVISVP2,2013-06-03 15:12:00,
2013-06-03 10:17:00,63.8,55.8,30.07,NE,49,2.0,4.0,75,0.00,,,0.00,WUHU216DAVISVP2,2013-06-03 15:17:00,
2013-06-03 10:22:00,63.8,55.8,30.07,NNE,17,2.0,7.0,75,0.00,,,0.00,WUHU216DAVISVP2,2013-06-03 15:22:00,
2013-06-03 10:27:00,63.9,55.2,30.07,NNW,328,4.0,7.0,73,0.00,,,0.00,WUHU216DAVISVP2,2013-06-03 15:27:00,
2013-06-03 10:32:00,64.1,55.4,30.07,ENE,60,0.0,6.0,73,0.00,,,0.00,WUHU216DAVISVP2,2013-06-03 15:32:00,
2013-06-03 10:37:00,64.1,53.9,30.07,NW,321,6.0,7.0,69,0.00,,,0.00,WUHU216DAVISVP2,2013-06-03 15:37:00,
2013-06-03 10:42:00,64.1,55.4,30.07,NW,309,6.0,9.0,73,0.00,,,0.00,WUHU216DAVISVP2,2013-06-03 15:42:00,
2013-06-03 10:47:00,64.0,54.6,30.07,WNW,292,1.0,10.0,71,0.00,,,0.00,WUHU216DAVISVP2,2013-06-03 15:47:00,
2013-06-03 10:52:00,64.3,54.8,30.07,NW,323,3.0,10.0,71,0.00,,,0.00,WUHU216DAVISVP2,2013-06-03 15:52:00,
2013-06-03 10:57:00,64.6,55.1,30.07,ENE,78,1.0,7.0,71,0.00,,,0.00,WUHU216DAVISVP2,2013-06-03 15:57:00,
2013-06-03 11:02:00,64.5,54.7,30.07,NNE,19,2.0,8.0,70,0.00,,,0.00,WUHU216DAVISVP2,2013-06-03 16:02:00,
2013-06-03 11:07:00,64.5,54.3,30.07,NE,48,2.0,8.0,69,0.00,,,0.00,WUHU216DAVISVP2,2013-06-03 16:07:00,
2013-06-03 11:12:00,64.8,54.5,30.07,ENE,60,2.0,7.0,69,0.00,,,0.00,WUHU216DAVISVP2,2013-06-03 16:12:00,
2013-06-03 11:17:00,65.1,55.2,30.07,NW,306,1.0,7.0,70,0.00,,,0.00,WUHU216DAVISVP2,2013-06-03 16:17:00,
2013-06-03 11:22:00,65.5,54.4,30.07,NW,326,2.0,6.0,67,0.00,,,0.00,WUHU216DAVISVP2,2013-06-03 16:22:00,
2013-06-03 11:27:00,65.5,53.6,30.07,NE,53,2.0,7.0,65,0.00,,,0.00,WUHU216DAVISVP2,2013-06-03 16:27:00,
2013-06-03 11:32:00,66.1,53.3,30.07,NNW,336,6.0,7.0,63,0.00,,,0.00,WUHU216DAVISVP2,2013-06-03 16:32:00,
2013-06-03 11:37:00,66.0,51.9,30.07,NW,304,3.0,6.0,60,0.00,,,0.00,WUHU216DAVISVP2,2013-06-03 16:37:00,
2013-06-03 11:42:00,66.0,53.2,30.07,ENE,64,2.0,5.0,63,0.00,,,0.00,WUHU216DAVISVP2,2013-06-03 16:42:00,
2013-06-03 11:47:00,65.7,53.4,30.07,NNW,329,8.0,8.0,64,0.00,,,0.00,WUHU216DAVISVP2,2013-06-03 16:47:00,
2013-06-03 11:52:00,65.0,53.9,30.07,North,356,2.0,9.0,67,0.00,,,0.00,WUHU216DAVISVP2,2013-06-03 16:52:00,
2013-06-03 11:57:00,64.9,53.0,30.07,NE,46,1.0,9.0,65,0.00,,,0.00,WUHU216DAVISVP2,2013-06-03 16:57:00,
2013-06-03 12:02:00,65.4,53.5,30.07,North,349,4.0,8.0,65,0.00,,,0.00,WUHU216DAVISVP2,2013-06-03 17:02:00,
2013-06-03 12:07:00,65.3,52.5,30.08,NNE,12,2.0,6.0,63,0.00,,,0.00,WUHU216DAVISVP2,2013-06-03 17:07:00,
2013-06-03 12:12:00,65.3,51.7,30.08,NW,319,5.0,7.0,61,0.00,,,0.00,WUHU216DAVISVP2,2013-06-03 17:12:00,
2013-06-03 12:17:00,65.3,52.5,30.07,WNW,282,3.0,7.0,63,0.00,,,0.00,WUHU216DAVISVP2,2013-06-03 17:17:00,
2013-06-03 12:22:00,65.8,53.5,30.07,NNE,32,4.0,8.0,64,0.00,,,0.00,WUHU216DAVISVP2,2013-06-03 17:22:00,
2013-06-03 12:27:00,66.7,54.7,30.07,NE,40,7.0,10.0,65,0.00,,,0.00,WUHU216DAVISVP2,2013-06-03 17:27:00,
2013-06-03 12:32:00,66.9,54.9,30.07,NNW,332,6.0,13.0,65,0.00,,,0.00,WUHU216DAVISVP2,2013-06-03 17:32:00,
2013-06-03 12:37:00,67.1,54.7,30.06,NW,326,6.0,13.0,64,0.00,,,0.00,WUHU216DAVISVP2,2013-06-03 17:37:00,
2013-06-03 12:42:00,66.3,53.5,30.06,West,259,0.0,10.0,63,0.00,,,0.00,WUHU216DAVISVP2,2013-06-03 17:42:00,
2013-06-03 12:47:00,66.4,52.7,30.05,NW,316,3.0,8.0,61,0.00,,,0.00,WUHU216DAVISVP2,2013-06-03 17:47:00,
2013-06-03 12:52:00,66.4,53.6,30.05,NNW,331,7.0,8.0,63,0.00,,,0.00,WUHU216DAVISVP2,2013-06-03 17:52:00,
2013-06-03 12:57:00,66.4,52.7,30.05,East,81,3.0,8.0,61,0.00,,,0.00,WUHU216DAVISVP2,2013-06-03 17:57:00,
2013-06-03 13:02:00,66.3,51.7,30.05,NNW,328,5.0,8.0,59,0.00,,,0.00,WUHU216DAVISVP2,2013-06-03 18:02:00,
2013-06-03 13:07:00,65.8,51.7,30.05,WNW,283,4.0,8.0,60,0.00,,,0.00,WUHU216DAVISVP2,2013-06-03 18:07:00,
2013-06-03 13:12:00,66.1,52.9,30.05,NW,324,5.0,8.0,62,0.00,,,0.00,WUHU216DAVISVP2,2013-06-03 18:12:00,
2013-06-03 13:17:00,66.4,54.0,30.05,NW,324,2.0,6.0,64,0.00,,,0.00,WUHU216DAVISVP2,2013-06-03 18:17:00,
2013-06-03 13:22:00,66.4,52.3,30.04,NNW,327,2.0,9.0,60,0.00,,,0.00,WUHU216DAVISVP2,2013-06-03 18:22:00,
2013-06-03 13:27:00,66.2,52.1,30.04,NE,56,2.0,9.0,60,0.00,,,0.00,WUHU216DAVISVP2,2013-06-03 18:27:00,
2013-06-03 13:32:00,66.7,52.5,30.04,ENE,58,1.0,5.0,60,0.00,,,0.00,WUHU216DAVISVP2,2013-06-03 18:32:00,
2013-06-03 13:37:00,66.9,52.3,30.04,NNW,342,4.0,8.0,59,0.00,,,0.00,WUHU216DAVISVP2,2013-06-03 18:37:00,
2013-06-03 13:42:00,66.9,52.3,30.04,ENE,59,0.0,8.0,59,0.00,,,0.00,WUHU216DAVISVP2,2013-06-03 18:42:00,
2013-06-03 13:47:00,67.9,53.2,30.04,NNW,335,1.0,6.0,59,0.00,,,0.00,WUHU216DAVISVP2,2013-06-03 18:47:00,
2013-06-03 13:52:00,67.8,54.5,30.04,ENE,65,4.0,9.0,62,0.00,,,0.00,WUHU216DAVISVP2,2013-06-03 18:52:00,
2013-06-03 13:57:00,67.5,53.7,30.03,West,275,0.0,9.0,61,0.00,,,0.00,WUHU216DAVISVP2,2013-06-03 18:57:00,
2013-06-03 14:02:00,67.3,54.0,30.04,NNE,27,1.0,6.0,62,0.00,,,0.00,WUHU216DAVISVP2,2013-06-03 19:02:00,
2013-06-03 14:07:00,67.3,53.6,30.03,ENE,68,2.0,5.0,61,0.00,,,0.00,WUHU216DAVISVP2,2013-06-03 19:07:00,
2013-06-03 14:12:00,66.7,52.5,30.04,East,83,6.0,7.0,60,0.00,,,0.00,WUHU216DAVISVP2,2013-06-03 19:12:00,
2013-06-03 14:17:00,66.4,52.7,30.03,ESE,120,2.0,7.0,61,0.00,,,0.00,WUHU216DAVISVP2,2013-06-03 19:17:00,
2013-06-03 14:22:00,66.5,54.1,30.03,ENE,77,3.0,6.0,64,0.00,,,0.00,WUHU216DAVISVP2,2013-06-03 19:22:00,
2013-06-03 14:27:00,66.6,53.3,30.03,ENE,77,2.0,8.0,62,0.00,,,0.00,WUHU216DAVISVP2,2013-06-03 19:27:00,
2013-06-03 14:32:00,67.0,52.7,30.04,NNW,328,4.0,8.0,60,0.00,,,0.00,WUHU216DAVISVP2,2013-06-03 19:32:00,
2013-06-03 14:37:00,66.7,53.3,30.04,East,93,3.0,7.0,62,0.00,,,0.00,WUHU216DAVISVP2,2013-06-03 19:37:00,
2013-06-03 14:42:00,66.4,53.4,30.04,ENE,70,1.0,7.0,63,0.00,,,0.00,WUHU216DAVISVP2,2013-06-03 19:42:00,
2013-06-03 14:47:00,66.6,52.3,30.03,North,5,3.0,5.0,60,0.00,,,0.00,WUHU216DAVISVP2,2013-06-03 19:47:00,
2013-06-03 14:52:00,66.7,51.9,30.03,ENE,72,2.0,4.0,59,0.00,,,0.00,WUHU216DAVISVP2,2013-06-03 19:52:00,
2013-06-03 14:57:00,67.0,50.9,30.03,ENE,75,3.0,4.0,56,0.00,,,0.00,WUHU216DAVISVP2,2013-06-03 19:57:00,
2013-06-03 15:02:00,67.0,50.8,30.02,NE,56,1.0,4.0,56,0.00,,,0.00,WUHU216DAVISVP2,2013-06-03 20:02:00,
2013-06-03 15:07:00,67.5,51.7,30.02,East,101,0.0,4.0,57,0.00,,,0.00,WUHU216DAVISVP2,2013-06-03 20:07:00,
2013-06-03 15:12:00,68.8,52.9,30.02,NNW,339,5.0,5.0,57,0.00,,,0.00,WUHU216DAVISVP2,2013-06-03 20:12:00,
2013-06-03 15:17:00,68.4,52.6,30.02,NNW,333,6.0,6.0,57,0.00,,,0.00,WUHU216DAVISVP2,2013-06-03 20:17:00,
2013-06-03 15:22:00,67.9,51.8,30.02,WSW,243,2.0,6.0,56,0.00,,,0.00,WUHU216DAVISVP2,2013-06-03 20:22:00,
2013-06-03 15:27:00,68.3,52.1,30.01,West,279,2.0,5.0,56,0.00,,,0.00,WUHU216DAVISVP2,2013-06-03 20:27:00,
2013-06-03 15:32:00,68.9,52.2,30.01,NW,317,3.0,6.0,55,0.00,,,0.00,WUHU216DAVISVP2,2013-06-03 20:32:00,
2013-06-03 15:37:00,68.2,52.0,30.01,NW,317,4.0,10.0,56,0.00,,,0.00,WUHU216DAVISVP2,2013-06-03 20:37:00,
2013-06-03 15:42:00,68.3,54.0,30.01,NNW,338,5.0,10.0,60,0.00,,,0.00,WUHU216DAVISVP2,2013-06-03 20:42:00,
2013-06-03 15:47:00,67.9,51.8,30.01,NW,308,3.0,7.0,56,0.00,,,0.00,WUHU216DAVISVP2,2013-06-03 20:47:00,
2013-06-03 15:52:00,67.6,52.0,30.01,ENE,77,1.0,7.0,57,0.00,,,0.00,WUHU216DAVISVP2,2013-06-03 20:52:00,
2013-06-03 15:57:00,68.5,54.2,30.01,WNW,288,1.0,4.0,60,0.00,,,0.00,WUHU216DAVISVP2,2013-06-03 20:57:00,
2013-06-03 16:02:00,69.0,53.3,30.01,East,101,4.0,7.0,57,0.00,,,0.00,WUHU216DAVISVP2,2013-06-03 21:02:00,
2013-06-03 16:07:00,67.8,52.6,30.01,ENE,65,2.0,7.0,58,0.00,,,0.00,WUHU216DAVISVP2,2013-06-03 21:07:00,
2013-06-03 16:12:00,67.6,53.4,30.01,ENE,58,0.0,5.0,60,0.00,,,0.00,WUHU216DAVISVP2,2013-06-03 21:12:00,
2013-06-03 16:17:00,67.7,53.0,30.01,NNW,341,0.0,6.0,59,0.00,,,0.00,WUHU216DAVISVP2,2013-06-03 21:17:00,
2013-06-03 16:22:00,68.1,53.4,30.01,NW,319,1.0,6.0,59,0.00,,,0.00,WUHU216DAVISVP2,2013-06-03 21:22:00,
2013-06-03 16:27:00,67.5,52.8,30.01,NNW,337,5.0,6.0,59,0.00,,,0.00,WUHU216DAVISVP2,2013-06-03 21:27:00,
2013-06-03 16:32:00,67.7,53.5,30.01,North,11,0.0,6.0,60,0.00,,,0.00,WUHU216DAVISVP2,2013-06-03 21:32:00,
2013-06-03 16:37:00,68.5,52.8,30.01,NW,316,3.0,5.0,57,0.00,,,0.00,WUHU216DAVISVP2,2013-06-03 21:37:00,
2013-06-03 16:42:00,69.1,53.9,30.01,NNW,335,4.0,6.0,58,0.00,,,0.00,WUHU216DAVISVP2,2013-06-03 21:42:00,
2013-06-03 16:47:00,69.3,52.6,30.02,NW,320,3.0,6.0,55,0.00,,,0.00,WUHU216DAVISVP2,2013-06-03 21:47:00,
2013-06-03 16:52:00,69.3,52.1,30.02,NNW,328,0.0,5.0,54,0.00,,,0.00,WUHU216DAVISVP2,2013-06-03 21:52:00,
2013-06-03 16:57:00,69.4,53.2,30.01,NW,323,6.0,6.0,56,0.00,,,0.00,WUHU216DAVISVP2,2013-06-03 21:57:00,
2013-06-03 17:02:00,69.5,53.7,30.01,WNW,300,2.0,6.0,57,0.00,,,0.00,WUHU216DAVISVP2,2013-06-03 22:02:00,
2013-06-03 17:07:00,69.8,52.0,30.02,WNW,300,1.0,5.0,53,0.00,,,0.00,WUHU216DAVISVP2,2013-06-03 22:07:00,
2013-06-03 17:12:00,69.5,51.6,30.01,WNW,293,2.0,6.0,53,0.00,,,0.00,WUHU216DAVISVP2,2013-06-03 22:12:00,
2013-06-03 17:17:00,69.8,53.0,30.01,NW,320,3.0,6.0,55,0.00,,,0.00,WUHU216DAVISVP2,2013-06-03 22:17:00,
2013-06-03 17:22:00,69.7,53.4,30.01,WNW,290,2.0,5.0,56,0.00,,,0.00,WUHU216DAVISVP2,2013-06-03 22:22:00,
2013-06-03 17:27:00,69.5,53.3,30.01,NW,314,2.0,6.0,56,0.00,,,0.00,WUHU216DAVISVP2,2013-06-03 22:27:00,
2013-06-03 17:32:00,69.5,52.2,30.01,NNW,335,3.0,7.0,54,0.00,,,0.00,WUHU216DAVISVP2,2013-06-03 22:32:00,
2013-06-03 17:37:00,69.3,52.6,30.01,ENE,68,0.0,7.0,55,0.00,,,0.00,WUHU216DAVISVP2,2013-06-03 22:37:00,
2013-06-03 17:42:00,69.4,53.7,30.01,NW,315,2.0,6.0,57,0.00,,,0.00,WUHU216DAVISVP2,2013-06-03 22:42:00,
2013-06-03 17:47:00,69.6,53.8,30.01,NW,304,2.0,7.0,57,0.00,,,0.00,WUHU216DAVISVP2,2013-06-03 22:47:00,
2013-06-03 17:52:00,69.5,53.3,30.01,North,353,3.0,7.0,56,0.00,,,0.00,WUHU216DAVISVP2,2013-06-03 22:52:00,
2013-06-03 17:57:00,69.8,54.0,30.01,NW,320,4.0,6.0,57,0.00,,,0.00,WUHU216DAVISVP2,2013-06-03 22:57:00,
2013-06-03 18:02:00,69.4,52.1,30.01,NW,308,2.0,7.0,54,0.00,,,0.00,WUHU216DAVISVP2,2013-06-03 23:02:00,
2013-06-03 18:07:00,69.0,52.2,30.01,NW,321,3.0,7.0,55,0.00,,,0.00,WUHU216DAVISVP2,2013-06-03 23:07:00,
2013-06-03 18:12:00,69.2,52.0,30.01,NNW,327,1.0,6.0,54,0.00,,,0.00,WUHU216DAVISVP2,2013-06-03 23:12:00,
2013-06-03 18:17:00,69.5,53.3,30.01,ENE,61,2.0,3.0,56,0.00,,,0.00,WUHU216DAVISVP2,2013-06-03 23:17:00,
2013-06-03 18:22:00,69.2,53.5,30.01,NW,304,4.0,7.0,57,0.00,,,0.00,WUHU216DAVISVP2,2013-06-03 23:22:00,
2013-06-03 18:27:00,68.8,51.6,30.01,NNW,335,3.0,7.0,54,0.00,,,0.00,WUHU216DAVISVP2,2013-06-03 23:27:00,
2013-06-03 18:32:00,68.6,52.4,30.01,NNW,348,2.0,7.0,56,0.00,,,0.00,WUHU216DAVISVP2,2013-06-03 23:32:00,
2013-06-03 18:37:00,68.8,53.1,30.01,North,354,2.0,5.0,57,0.00,,,0.00,WUHU216DAVISVP2,2013-06-03 23:37:00,
2013-06-03 18:42:00,68.8,51.6,30.00,ENE,74,2.0,5.0,54,0.00,,,0.00,WUHU216DAVISVP2,2013-06-03 23:42:00,
2013-06-03 18:47:00,68.3,52.6,30.00,NNW,345,4.0,5.0,57,0.00,,,0.00,WUHU216DAVISVP2,2013-06-03 23:47:00,
2013-06-03 18:52:00,68.5,52.8,30.00,NNE,14,1.0,5.0,57,0.00,,,0.00,WUHU216DAVISVP2,2013-06-03 23:52:00,
2013-06-03 18:57:00,68.6,52.9,30.00,ENE,59,2.0,5.0,57,0.00,,,0.00,WUHU216DAVISVP2,2013-06-03 23:57:00,
2013-06-03 19:02:00,68.0,53.8,30.00,ENE,72,3.0,3.0,60,0.00,,,0.00,WUHU216DAVISVP2,2013-06-04 00:02:00,
2013-06-03 19:07:00,67.6,53.4,30.00,East,84,0.0,4.0,60,0.00,,,0.00,WUHU216DAVISVP2,2013-06-04 00:07:00,
2013-06-03 19:12:00,67.5,53.3,30.00,NE,50,3.0,4.0,60,0.00,,,0.00,WUHU216DAVISVP2,2013-06-04 00:12:00,
2013-06-03 19:17:00,67.3,53.6,30.00,NE,50,1.0,4.0,61,0.00,,,0.00,WUHU216DAVISVP2,2013-06-04 00:17:00,
2013-06-03 19:22:00,67.0,53.3,30.01,ENE,70,3.0,4.0,61,0.00,,,0.00,WUHU216DAVISVP2,2013-06-04 00:22:00,
2013-06-03 19:27:00,66.8,53.5,30.01,NE,56,1.0,4.0,62,0.00,,,0.00,WUHU216DAVISVP2,2013-06-04 00:27:00,
2013-06-03 19:32:00,66.7,53.4,30.00,ENE,64,1.0,2.0,62,0.00,,,0.00,WUHU216DAVISVP2,2013-06-04 00:32:00,
2013-06-03 19:37:00,66.4,53.6,30.00,NE,50,0.0,2.0,63,0.00,,,0.00,WUHU216DAVISVP2,2013-06-04 00:37:00,
2013-06-03 19:42:00,65.6,53.3,30.00,ENE,68,1.0,4.0,64,0.00,,,0.00,WUHU216DAVISVP2,2013-06-04 00:42:00,
2013-06-03 19:47:00,65.1,53.6,30.00,NE,40,1.0,4.0,66,0.00,,,0.00,WUHU216DAVISVP2,2013-06-04 00:47:00,
2013-06-03 19:52:00,64.7,53.2,30.00,East,83,0.0,4.0,66,0.00,,,0.00,WUHU216DAVISVP2,2013-06-04 00:52:00,
2013-06-03 19:57:00,64.4,53.4,30.01,East,83,0.0,2.0,67,0.00,,,0.00,WUHU216DAVISVP2,2013-06-04 00:57:00,
2013-06-03 20:02:00,64.1,53.5,30.01,East,83,0.0,1.0,68,0.00,,,0.00,WUHU216DAVISVP2,2013-06-04 01:02:00,
2013-06-03 20:07:00,63.7,53.5,30.01,ENE,76,0.0,1.0,69,0.00,,,0.00,WUHU216DAVISVP2,2013-06-04 01:07:00,
2013-06-03 20:12:00,63.3,54.3,30.01,ENE,76,0.0,1.0,72,0.00,,,0.00,WUHU216DAVISVP2,2013-06-04 01:12:00,
2013-06-03 20:17:00,62.7,54.0,30.01,ENE,76,0.0,0.0,73,0.00,,,0.00,WUHU216DAVISVP2,2013-06-04 01:17:00,
2013-06-03 20:22:00,62.3,53.7,30.01,ENE,75,0.0,0.0,73,0.00,,,0.00,WUHU216DAVISVP2,2013-06-04 01:22:00,
2013-06-03 20:27:00,62.2,53.2,30.01,ENE,75,0.0,0.0,72,0.00,,,0.00,WUHU216DAVISVP2,2013-06-04 01:27:00,
2013-06-03 20:32:00,62.1,53.1,30.02,ENE,75,0.0,0.0,72,0.00,,,0.00,WUHU216DAVISVP2,2013-06-04 01:32:00,
2013-06-03 20:37:00,61.8,53.2,30.02,ENE,75,0.0,0.0,73,0.00,,,0.00,WUHU216DAVISVP2,2013-06-04 01:37:00,
2013-06-03 20:42:00,61.4,53.2,30.02,ENE,75,0.0,0.0,74,0.00,,,0.00,WUHU216DAVISVP2,2013-06-04 01:42:00,
2013-06-03 20:47:00,61.1,53.6,30.02,ENE,75,0.0,0.0,76,0.00,,,0.00,WUHU216DAVISVP2,2013-06-04 01:47:00,
2013-06-03 20:52:00,60.8,53.6,30.02,ENE,75,0.0,0.0,77,0.00,,,0.00,WUHU216DAVISVP2,2013-06-04 01:52:00,
2013-06-03 20:57:00,60.6,54.1,30.02,ENE,75,0.0,0.0,79,0.00,,,0.00,WUHU216DAVISVP2,2013-06-04 01:57:00,
2013-06-03 21:02:00,60.2,54.4,30.03,ENE,75,0.0,0.0,81,0.00,,,0.00,WUHU216DAVISVP2,2013-06-04 02:02:00,
2013-06-03 21:07:00,59.7,54.6,30.02,ENE,75,0.0,0.0,83,0.00,,,0.00,WUHU216DAVISVP2,2013-06-04 02:07:00,
2013-06-03 21:12:00,59.3,54.5,30.03,ENE,75,0.0,0.0,84,0.00,,,0.00,WUHU216DAVISVP2,2013-06-04 02:12:00,
2013-06-03 21:17:00,59.3,53.8,30.03,ENE,75,0.0,1.0,82,0.00,,,0.00,WUHU216DAVISVP2,2013-06-04 02:17:00,
2013-06-03 21:22:00,59.5,53.7,30.03,ENE,74,1.0,1.0,81,0.00,,,0.00,WUHU216DAVISVP2,2013-06-04 02:22:00,
2013-06-03 21:27:00,59.7,53.9,30.03,ENE,66,1.0,2.0,81,0.00,,,0.00,WUHU216DAVISVP2,2013-06-04 02:27:00,
2013-06-03 21:32:00,59.7,53.9,30.03,ENE,63,1.0,2.0,81,0.00,,,0.00,WUHU216DAVISVP2,2013-06-04 02:32:00,
2013-06-03 21:37:00,59.6,53.8,30.03,ENE,63,1.0,2.0,81,0.00,,,0.00,WUHU216DAVISVP2,2013-06-04 02:37:00,
2013-06-03 21:42:00,59.5,53.7,30.04,ENE,63,0.0,2.0,81,0.00,,,0.00,WUHU216DAVISVP2,2013-06-04 02:42:00,
2013-06-03 21:47:00,59.2,53.4,30.04,ENE,63,0.0,1.0,81,0.00,,,0.00,WUHU216DAVISVP2,2013-06-04 02:47:00,
2013-06-03 21:52:00,58.8,53.7,30.04,ENE,63,0.0,0.0,83,0.00,,,0.00,WUHU216DAVISVP2,2013-06-04 02:52:00,
2013-06-03 21:57:00,58.5,53.7,30.04,ENE,63,0.0,0.0,84,0.00,,,0.00,WUHU216DAVISVP2,2013-06-04 02:57:00,
2013-06-03 22:02:00,58.2,53.7,30.04,ENE,63,0.0,0.0,85,0.00,,,0.00,WUHU216DAVISVP2,2013-06-04 03:02:00,
2013-06-03 22:07:00,58.1,53.6,30.04,ENE,63,1.0,1.0,85,0.00,,,0.00,WUHU216DAVISVP2,2013-06-04 03:07:00,
2013-06-03 22:12:00,58.0,53.5,30.05,ENE,63,0.0,1.0,85,0.00,,,0.00,WUHU216DAVISVP2,2013-06-04 03:12:00,
2013-06-03 22:17:00,57.7,53.5,30.05,ENE,63,0.0,1.0,86,0.00,,,0.00,WUHU216DAVISVP2,2013-06-04 03:17:00,
2013-06-03 22:22:00,57.5,53.3,30.05,ENE,63,0.0,0.0,86,0.00,,,0.00,WUHU216DAVISVP2,2013-06-04 03:22:00,
2013-06-03 22:27:00,57.3,53.1,30.05,ENE,63,0.0,0.0,86,0.00,,,0.00,WUHU216DAVISVP2,2013-06-04 03:27:00,
2013-06-03 22:32:00,57.1,53.3,30.05,ENE,63,0.0,0.0,87,0.00,,,0.00,WUHU216DAVISVP2,2013-06-04 03:32:00,
2013-06-03 22:37:00,57.0,53.2,30.05,ENE,63,0.0,0.0,87,0.00,,,0.00,WUHU216DAVISVP2,2013-06-04 03:37:00,
2013-06-03 22:42:00,57.0,53.2,30.05,ENE,63,0.0,1.0,87,0.00,,,0.00,WUHU216DAVISVP2,2013-06-04 03:42:00,
2013-06-03 22:47:00,57.0,52.9,30.05,ENE,65,0.0,1.0,86,0.00,,,0.00,WUHU216DAVISVP2,2013-06-04 03:47:00,
2013-06-03 22:52:00,57.1,53.0,30.05,ENE,67,0.0,1.0,86,0.00,,,0.00,WUHU216DAVISVP2,2013-06-04 03:52:00,
2013-06-03 22:57:00,57.4,52.9,30.05,ENE,72,0.0,0.0,85,0.00,,,0.00,WUHU216DAVISVP2,2013-06-04 03:57:00,
2013-06-03 23:01:00,57.5,53.0,30.05,ENE,71,1.0,2.0,85,0.00,,,0.00,WUHU216DAVISVP2,2013-06-04 04:01:00,
2013-06-03 23:06:00,57.6,52.8,30.05,ENE,66,2.0,3.0,84,0.00,,,0.00,WUHU216DAVISVP2,2013-06-04 04:06:00,
2013-06-03 23:11:00,57.5,52.7,30.05,ENE,77,2.0,3.0,84,0.00,,,0.00,WUHU216DAVISVP2,2013-06-04 04:11:00,
2013-06-03 23:16:00,57.5,52.7,30.05,ENE,71,2.0,3.0,84,0.00,,,0.00,WUHU216DAVISVP2,2013-06-04 04:16:00,
2013-06-03 23:21:00,57.5,52.7,30.05,ENE,70,2.0,3.0,84,0.00,,,0.00,WUHU216DAVISVP2,2013-06-04 04:21:00,
2013-06-03 23:26:00,57.4,52.6,30.05,East,79,0.0,3.0,84,0.00,,,0.00,WUHU216DAVISVP2,2013-06-04 04:26:00,
2013-06-03 23:32:00,57.3,52.5,30.05,ENE,77,1.0,3.0,84,0.00,,,0.00,WUHU216DAVISVP2,2013-06-04 04:32:00,
2013-06-03 23:37:00,57.4,52.6,30.05,ENE,72,1.0,3.0,84,0.00,,,0.00,WUHU216DAVISVP2,2013-06-04 04:37:00,
2013-06-03 23:42:00,57.4,52.3,30.05,ENE,68,1.0,3.0,83,0.00,,,0.00,WUHU216DAVISVP2,2013-06-04 04:42:00,
2013-06-03 23:47:00,57.3,52.2,30.05,ENE,66,0.0,3.0,83,0.00,,,0.00,WUHU216DAVISVP2,2013-06-04 04:47:00,
2013-06-03 23:52:00,57.2,52.1,30.05,ENE,65,1.0,2.0,83,0.00,,,0.00,WUHU216DAVISVP2,2013-06-04 04:52:00,
2013-06-03 23:57:00,57.2,52.1,30.05,NE,54,2.0,2.0,83,0.00,,,0.00,WUHU216DAVISVP2,2013-06-04 04:57:00,